DW6747 Weather Reports


time (UTC)temp
F
wind
direction
speed
knots
gust
knots
rain 1hr
in
rain 24hr
in
rain mn
in
humidity
%
barometer
mb
20260504215153 73 134 0.9 8.7 0.00 0.00 0.00 33 1010.1
20260504214208 74 189 1.7 8.7 0.00 0.00 0.00 32 1010.1
20260504213207 74 144 1.7 8.7 0.00 0.00 0.00 32 1010.1
20260504212224 74 71 0.9 7.0 0.00 0.00 0.00 34 1010.2
20260504211237 74 82 0.9 5.2 0.00 0.00 0.00 32 1010.3
20260504210255 74 148 0.0 4.3 0.00 0.00 0.00 34 1010.2
20260504205244 74 109 0.9 6.1 0.00 0.00 0.00 34 1010.3
20260504203058 75 34 0.0 0.9 0.00 0.00 0.00 36 1010.5
20260504200904 74 237 0.9 9.6 0.00 0.00 0.00 31 1010.6
20260504195842 74 194 2.6 9.6 0.00 0.00 0.00 31 1010.8
20260504194813 75 238 0.9 6.1 0.00 0.00 0.00 34 1010.9
20260504193811 75 230 0.9 7.8 0.00 0.00 0.00 34 1011.2
20260504191705 74 163 0.9 7.8 0.00 0.00 0.00 31 1011.6
20260504190645 74 147 0.9 8.7 0.00 0.00 0.00 31 1011.7
20260504185638 75 242 0.9 10.4 0.00 0.00 0.00 33 1011.9
20260504184625 74 122 0.9 10.4 0.00 0.00 0.00 32 1012.0
20260504183644 74 344 0.9 7.0 0.00 0.00 0.00 35 1012.2
20260504182706 74 315 0.9 7.0 0.00 0.00 0.00 32 1012.4
20260504181640 73 113 0.9 7.8 0.00 0.00 0.00 32 1012.4
20260504175509 73 252 0.9 7.8 0.00 0.00 0.00 31 1012.8
20260504174514 71 101 0.9 7.8 0.00 0.00 0.00 31 1013.0
20260504173452 72 161 0.0 0.9 0.00 0.00 0.00 31 1013.0
20260504172512 71 153 0.9 7.0 0.00 0.00 0.00 31 1013.2
20260504170251 71 170 0.9 3.5 0.00 0.00 0.00 34 1013.6
20260504160228 67 158 1.7 9.6 0.00 0.00 0.00 34 1014.3
20260504150845 65 215 0.0 3.5 0.00 0.00 0.00 37 1014.9
20260504140717 60 107 0.9 5.2 0.00 0.00 0.00 45 1015.1
20260504110234 43 0 0.0 0.0 0.00 0.00 0.00 84 1016.1
20260504100138 45 0 0.0 0.0 0.00 0.00 0.00 81 1016.2
20260504080740 44 0 0.0 0.0 0.00 0.00 0.00 82 1016.6
20260504050711 41 0 0.0 0.0 0.00 0.00 0.00 79 1016.8
20260504044603 41 0 0.0 0.0 0.00 0.00 0.00 80 1016.6
20260504042516 41 0 0.0 0.0 0.00 0.00 0.00 78 1016.6
20260504041506 41 0 0.0 0.0 0.00 0.00 0.00 78 1016.7
20260504040451 41 0 0.0 0.0 0.00 0.00 0.00 76 1016.7
20260504035444 41 0 0.0 0.0 0.00 0.00 0.00 77 1016.6
20260504034433 42 0 0.0 0.0 0.00 0.00 0.00 76 1016.6
20260504033400 42 0 0.0 0.0 0.00 0.00 0.00 75 1016.4
20260504032337 42 0 0.0 0.0 0.00 0.00 0.00 74 1016.3
20260504031326 43 0 0.0 0.0 0.00 0.00 0.00 71 1016.2
20260504030342 43 0 0.0 0.0 0.00 0.00 0.00 71 1016.1
20260504025308 43 0 0.0 0.0 0.00 0.00 0.00 72 1016.0
20260504024244 44 0 0.0 0.0 0.00 0.00 0.00 70 1016.1
20260504023237 44 0 0.0 0.0 0.00 0.00 0.00 68 1015.9
20260504022215 45 0 0.0 0.0 0.00 0.00 0.00 68 1016.0
20260504020054 46 0 0.0 0.0 0.00 0.00 0.00 65 1015.9
20260504013906 47 0 0.0 0.0 0.00 0.00 0.00 60 1015.8
20260504012854 47 0 0.0 0.0 0.00 0.00 0.00 57 1015.8
20260504010712 48 0 0.0 0.0 0.00 0.00 0.00 58 1015.6
20260504005725 49 0 0.0 0.0 0.00 0.00 0.00 53 1015.6
20260504004704 50 0 0.0 0.0 0.00 0.00 0.00 52 1015.4
20260504002558 52 0 0.0 0.0 0.00 0.00 0.00 52 1015.3
20260504001548 53 0 0.0 0.0 0.00 0.00 0.00 47 1015.1
20260504000608 54 0 0.0 0.0 0.00 0.00 0.00 44 1015.0
20260503235631 54 0 0.0 0.0 0.00 0.00 0.00 40 1015.0
20260503234608 55 0 0.0 0.0 0.00 0.00 0.00 42 1015.0
20260503233559 56 0 0.0 0.9 0.00 0.00 0.00 34 1014.8
20260503232536 58 74 0.0 0.0 0.00 0.00 0.00 37 1014.8
20260503230350 59 38 0.0 1.7 0.00 0.00 0.00 32 1014.6
20260503225354 59 331 0.0 1.7 0.00 0.00 0.00 29 1014.7
20260503224348 59 52 0.0 2.6 0.00 0.00 0.00 29 1014.8
20260503223359 60 272 0.0 0.9 0.00 0.00 0.00 28 1014.9
20260503222359 60 141 0.0 4.3 0.00 0.00 0.00 29 1014.8
20260503221334 60 271 0.0 4.3 0.00 0.00 0.00 29 1014.6